Weather reports worldwide

Advertisment
Ponferrada, Spain (8053): temperature & dewpoint: 13.03.2019 10:00:00 - 19.03.2019 10:00:00 (CET)Ponferrada, Spain (8053): wind speed: 13.03.2019 10:00:00 - 19.03.2019 10:00:00 (CET)Ponferrada, Spain (8053): wind direction: 13.03.2019 10:00:00 - 19.03.2019 10:00:00 (CET)Ponferrada, Spain (8053): reduced air pressure: 13.03.2019 10:00:00 - 19.03.2019 10:00:00 (CET)Ponferrada, Spain (8053): visibility: 13.03.2019 10:00:00 - 19.03.2019 10:00:00 (CET)Ponferrada, Spain (8053): precipitation: 13.03.2019 10:00:00 - 19.03.2019 10:00:00 (CET)
Date & Time tt [°C] td [°C] ff [km/h] ff [kn] dd ppp [hPa] vv [km] rr [mm]
19.03.2019 10:00:00 - - - - - - - -
19.03.2019 09:00:00 3,7 -0,3 2 1 SE 1031,1 20 0,0
19.03.2019 08:00:00 1,2 -0,7 2 1 W 1031,7 20 0,0
19.03.2019 07:00:00 1,7 -0,9 2 1 NW 1031,1 20 -
19.03.2019 06:00:00 2,3 -0,5 2 1 NNE 1030,5 20 0,0
19.03.2019 05:00:00 2,7 -0,1 4 2 SE 1030,5 20 0,0
19.03.2019 04:00:00 3,2 0,1 4 2 SE 1030,2 20 -
19.03.2019 03:00:00 3,9 0,2 4 2 ESE 1030,6 20 0,0
19.03.2019 02:00:00 5,3 0,7 2 1 E 1029,9 20 0,0
19.03.2019 01:00:00 6,0 0,9 2 1 S 1030,4 20 -
19.03.2019 00:00:00 6,3 1,2 4 2 SSE 1030,1 20 0,0
18.03.2019 23:00:00 7,5 1,3 2 1 S 1029,2 20 0,0
18.03.2019 22:00:00 9,1 1,7 4 2 WSW 1028,6 20 -
18.03.2019 21:00:00 10,4 1,7 5 3 WSW 1027,8 20 0,0
18.03.2019 20:00:00 12,2 1,5 5 3 WSW 1026,6 20 0,0
18.03.2019 19:00:00 14,9 0,7 9 5 W 1025,0 20 -
18.03.2019 18:00:00 16,4 -1,7 8 4 W 1024,5 1,7 0,0
18.03.2019 17:00:00 16,3 -4,9 5 3 WNW 1024,6 2,2 0,0
18.03.2019 16:00:00 15,7 -5,4 8 4 W 1025,2 30 -
18.03.2019 15:00:00 14,7 -5,2 8 4 W 1025,9 12 0,0
18.03.2019 14:00:00 12,9 -6,2 8 4 NW 1027,3 20 0,0
18.03.2019 13:00:00 11,0 -3,5 5 3 W 1028,7 30 -
18.03.2019 12:00:00 8,1 -2,8 5 3 SW 1030,4 20 0,0
18.03.2019 11:00:00 5,7 -1,5 5 3 NW 1031,1 20 0,0
18.03.2019 10:00:00 3,0 -2,5 4 2 W 1031,7 30 -
18.03.2019 09:00:00 1,7 -3,2 4 2 SSE 1031,6 20 0,0
18.03.2019 08:00:00 -1,4 -3,4 2 1 SE 1031,9 20 0,0
18.03.2019 07:00:00 -0,9 -3,4 2 1 NNW 1031,3 30 -
18.03.2019 06:00:00 -0,2 -2,7 2 1 S 1030,5 20 0,0
18.03.2019 05:00:00 0,3 -3,1 2 1 SSE 1030,0 20 0,0
18.03.2019 04:00:00 1,4 -2,7 4 2 ESE 1029,4 20 -
18.03.2019 03:00:00 1,5 -2,3 4 2 ESE 1029,4 20 0,0
18.03.2019 02:00:00 2,8 -1,4 4 2 SSE 1028,8 20 0,0
18.03.2019 01:00:00 4,4 -1,0 5 3 WSW 1028,1 20 -
18.03.2019 00:00:00 4,7 -1,3 2 1 W 1028,2 20 0,0
17.03.2019 23:00:00 6,1 -2,5 8 4 WNW 1027,7 20 0,0
17.03.2019 22:00:00 7,1 -0,9 9 5 WNW 1026,9 20 -
17.03.2019 21:00:00 8,1 -1,4 9 5 WNW 1025,7 20 0,0
17.03.2019 20:00:00 9,0 -1,2 9 5 NW 1024,9 20 0,0
17.03.2019 19:00:00 10,5 -1,6 8 4 N 1023,8 20 -
17.03.2019 18:00:00 12,1 0,2 11 6 NNE 1022,4 20 0,0
17.03.2019 17:00:00 13,7 1,0 15 8 WNW 1021,5 20 0,0
17.03.2019 16:00:00 12,9 1,8 13 7 WNW 1021,8 20 -
17.03.2019 15:00:00 13,8 2,1 13 7 WNW 1021,6 20 0,0
17.03.2019 14:00:00 12,6 4,3 5 3 N 1022,2 20 0,0
17.03.2019 13:00:00 13,7 4,0 13 7 W 1021,6 20 -
17.03.2019 12:00:00 12,3 4,8 11 6 WNW 1021,7 20 0,0
17.03.2019 11:00:00 10,7 5,7 11 6 W 1021,9 20 0,0
17.03.2019 10:00:00 9,1 4,9 9 5 W 1022,0 20 -
17.03.2019 09:00:00 8,0 4,2 5 3 WNW 1022,0 20 0,0
17.03.2019 08:00:00 7,4 3,4 4 2 NNW 1021,6 20 0,0
17.03.2019 07:00:00 7,4 3,1 2 1 NNW 1021,2 20 -
17.03.2019 06:00:00 7,4 2,7 4 2 NW 1021,2 20 0,0
17.03.2019 05:00:00 7,2 2,3 5 3 W 1020,9 20 0,0
17.03.2019 04:00:00 7,2 2,3 9 5 W 1021,0 20 -
17.03.2019 03:00:00 7,7 2,6 9 5 W 1020,8 20 0,0
17.03.2019 02:00:00 6,9 -0,1 5 3 W 1020,4 20 0,0
17.03.2019 01:00:00 7,6 0,1 2 1 E 1018,6 20 -
17.03.2019 00:00:00 9,6 0,7 4 2 NE 1018,2 20 0,0
16.03.2019 23:00:00 11,3 0,7 4 2 ENE 1018,2 20 0,0
16.03.2019 22:00:00 13,2 0,2 4 2 NE 1018,0 20 -
16.03.2019 21:00:00 15,7 -1,0 2 1 NW 1016,9 20 0,0
16.03.2019 20:00:00 18,8 -4,7 5 3 WSW 1015,6 20 0,0
16.03.2019 19:00:00 21,6 -0,4 9 5 W 1014,3 20 -
16.03.2019 18:00:00 23,3 -0,3 13 7 W 1013,9 20 0,0
16.03.2019 17:00:00 23,7 -2,8 8 4 WNW 1013,8 20 0,0
16.03.2019 16:00:00 22,9 -2,7 5 3 W 1014,8 20 -
16.03.2019 15:00:00 20,6 -0,7 4 2 WNW 1016,4 20 0,0
16.03.2019 14:00:00 17,3 -0,5 5 3 WSW 1018,6 20 0,0
16.03.2019 13:00:00 13,7 0,0 4 2 W 1020,9 20 -
16.03.2019 12:00:00 10,1 0,4 4 2 WSW 1023,1 20 0,0
16.03.2019 11:00:00 7,2 -0,1 4 2 WNW 1024,9 20 0,0
16.03.2019 10:00:00 5,4 -0,9 2 1 W 1026,0 20 -
16.03.2019 09:00:00 2,9 -1,8 0 0 N 1026,7 20 0,0
16.03.2019 08:00:00 0,4 -2,5 4 2 NNW 1027,3 19 0,0
16.03.2019 07:00:00 0,7 -2,2 0 0 N 1027,3 20 -
16.03.2019 06:00:00 1,4 -2,0 2 1 ESE 1027,2 20 0,0
16.03.2019 05:00:00 2,2 -1,8 2 1 ENE 1027,1 20 0,0
16.03.2019 04:00:00 2,7 -1,5 2 1 S 1027,3 20 -
16.03.2019 03:00:00 3,7 -1,3 2 1 N 1028,0 20 0,0
16.03.2019 02:00:00 4,5 -1,1 2 1 ESE 1027,9 20 0,0
16.03.2019 01:00:00 5,7 -1,2 2 1 E 1027,9 20 -
16.03.2019 00:00:00 7,4 -0,6 2 1 ENE 1027,5 20 0,0
15.03.2019 23:00:00 8,7 -0,6 5 3 SSE 1027,0 20 0,0
15.03.2019 22:00:00 10,2 -0,3 4 2 SE 1026,3 20 -
15.03.2019 21:00:00 12,3 -0,3 4 2 SSE 1025,5 20 0,0
15.03.2019 20:00:00 16,7 1,1 2 1 E 1023,9 20 0,0
15.03.2019 19:00:00 22,2 1,2 0 0 N 1022,4 20 -
15.03.2019 18:00:00 22,9 0,0 4 2 WNW 1022,5 20 0,0
15.03.2019 17:00:00 21,6 0,1 4 2 NW 1022,9 19 0,0
15.03.2019 16:00:00 19,6 2,0 4 2 W 1023,9 30 -
15.03.2019 15:00:00 17,7 1,2 4 2 WNW 1025,1 20 0,0
15.03.2019 14:00:00 15,0 0,0 5 3 WSW 1027,0 20 0,0
15.03.2019 13:00:00 12,1 2,0 4 2 SW 1029,0 30 -
15.03.2019 12:00:00 9,0 2,5 4 2 NNE 1030,8 20 0,0
15.03.2019 11:00:00 6,1 1,6 4 2 W 1032,2 20 0,0
15.03.2019 10:00:00 3,9 0,2 2 1 W 1033,1 20 -
15.03.2019 09:00:00 1,9 -0,2 2 1 WSW 1033,8 19 0,0
15.03.2019 08:00:00 -0,7 -1,7 2 1 E 1034,5 19 0,0
15.03.2019 07:00:00 -0,2 -1,2 2 1 ENE 1034,0 18 -
15.03.2019 06:00:00 0,3 -1,0 0 0 N 1033,9 18 0,0
15.03.2019 05:00:00 1,1 -0,5 2 1 E 1033,6 20 0,0
15.03.2019 04:00:00 2,0 0,1 2 1 SE 1033,3 19 -
15.03.2019 03:00:00 2,8 0,5 2 1 S 1033,5 20 0,0
15.03.2019 02:00:00 3,7 0,9 4 2 SE 1033,5 20 0,0
15.03.2019 01:00:00 4,6 1,3 4 2 SSE 1033,3 20 -
15.03.2019 00:00:00 5,6 1,9 4 2 ESE 1033,3 20 0,0
14.03.2019 23:00:00 7,0 2,3 2 1 SW 1032,8 20 0,0
14.03.2019 22:00:00 9,2 2,7 4 2 W 1031,6 20 -
14.03.2019 21:00:00 10,6 3,1 8 4 WNW 1030,8 20 0,0
14.03.2019 20:00:00 12,0 2,7 9 5 WNW 1029,8 20 0,0
14.03.2019 19:00:00 14,8 2,0 11 6 WNW 1028,3 20 -
14.03.2019 18:00:00 17,5 2,6 13 7 WNW 1027,1 20 0,0
14.03.2019 17:00:00 19,0 -1,5 8 4 W 1027,1 20 0,0
14.03.2019 16:00:00 17,7 -0,1 5 3 SW 1027,8 30 -
14.03.2019 15:00:00 15,3 1,0 4 2 W 1029,3 20 0,0
14.03.2019 14:00:00 12,7 1,4 5 3 WNW 1031,2 20 0,0
14.03.2019 13:00:00 10,8 1,3 5 3 N 1033,1 30 -
14.03.2019 12:00:00 - - - - - - - -
14.03.2019 11:00:00 6,3 1,0 4 2 WSW 1035,6 20 0,0
14.03.2019 10:00:00 3,0 0,1 4 2 W 1036,7 30 -
14.03.2019 09:00:00 1,1 -0,8 2 1 WSW 1037,0 20 0,0
14.03.2019 08:00:00 -0,8 -1,8 2 1 ENE 1037,1 20 0,0
14.03.2019 07:00:00 -0,5 -1,6 2 1 NNW 1037,0 30 -
14.03.2019 06:00:00 0,0 -1,6 0 0 N 1036,7 20 0,0
14.03.2019 05:00:00 0,7 -0,8 2 1 SW 1036,3 20 0,0
14.03.2019 04:00:00 1,0 -0,8 2 1 E 1036,5 20 -
14.03.2019 03:00:00 1,7 -0,2 4 2 ESE 1036,6 20 0,0
14.03.2019 02:00:00 2,4 0,1 4 2 ESE 1036,4 20 0,0
14.03.2019 01:00:00 2,9 0,5 4 2 SE 1036,5 20 -
14.03.2019 00:00:00 3,6 0,5 4 2 ESE 1036,8 20 0,0
13.03.2019 23:00:00 4,1 0,6 4 2 E 1036,5 20 0,0
13.03.2019 22:00:00 5,2 1,1 4 2 ESE 1035,8 20 -
13.03.2019 21:00:00 7,1 1,6 2 1 NNE 1035,0 20 0,0
13.03.2019 20:00:00 8,8 1,7 9 5 WSW 1034,4 20 0,0
13.03.2019 19:00:00 10,7 0,4 5 3 N 1033,1 20 -
13.03.2019 18:00:00 11,5 1,7 15 8 WNW 1032,3 20 0,0
13.03.2019 17:00:00 12,6 -0,7 8 4 N 1031,6 20 0,0
13.03.2019 16:00:00 - - - - - - - -
13.03.2019 15:00:00 11,2 0,9 13 7 WNW 1031,7 20 0,0
13.03.2019 14:00:00 11,2 1,4 15 8 W 1031,8 20 0,0
13.03.2019 13:00:00 10,6 1,9 15 8 W 1032,4 30 -
13.03.2019 12:00:00 9,3 2,4 13 7 WNW 1032,9 20 0,0
13.03.2019 11:00:00 7,6 1,9 11 6 WSW 1033,1 20 0,0
13.03.2019 10:00:00 7,3 1,4 11 6 W 1032,9 30 -

tt = temperature
td = dewpoint
ff = wind speed
dd = wind direction
ppp = reduced air pressure
vv = visibility
rr = precipitation

Next stations